Temperature
0 1 1 1 1 0 0 0 1 1 1 2 1 -0 -0 -0 -1 -1 -1 -1 -1 -1 -1 -1 -1 -1 -1 -1 -1 -1 -1 -1 -1 -1 -1 -1 -1 -0 -0 -0 -0 -0 -0 -0
-1 0 0 0 0 -0 0 0 -0 0 0 0 -0 -0 -1 -1 -2 -2 -2 -2 -2 -2 -2 -2 -2 -2 -2 -2 -2 -2 -2 -2 -2 -2 -2 -1 -1 -1 -1 -1 -1 -1 -1 -1
-1 -1 -0 -0 -0 -0 -1 -1 -1 0 0 -1 -1 -2 -2 -2 -2 -2 -2 -2 -2 -2 -2 -3 -3 -3 -3 -3 -3 -3 -3 -2 -2 -2 -2 -2 -2 -2 -2 -2 -2 -2 -2 -2
-2 -2 -1 0 -1 -1 -1 -1 -2 -1 -1 -2 -2 -2 -2 -2 -2 -2 -2 -3 -3 -3 -3 -3 -3 -3 -3 -3 -3 -3 -3 -3 -3 -3 -3 -3 -3 -3 -3 -3 -3 -3 -3 -3
-2 -2 -2 -1 -1 -2 -2 -2 -2 -2 -2 -3 -3 -3 -3 -2 -2 -2 -3 -3 -3 -3 -4 -4 -4 -4 -4 -4 -4 -4 -4 -4 -4 -4 -4 -4 -3 -3 -3 -3 -3 -3 -3 -3
-3 -2 -2 -0 -2 -2 -2 -2 -3 -3 -4 -4 -4 -4 -3 -2 -3 -3 -3 -4 -4 -4 -4 -4 -4 -5 -5 -5 -5 -5 -5 -5 -5 -5 -4 -4 -4 -4 -4 -4 -4 -4 -4 -4
-3 -3 -3 -2 -3 -2 -1 -1 -3 -3 -4 -4 -5 -3 -3 -3 -3 -4 -4 -4 -4 -5 -5 -5 -5 -5 -6 -6 -6 -6 -6 -6 -6 -6 -5 -5 -5 -5 -5 -5 -5 -5 -5 -5
-4 -3 -2 -3 -4 -3 -3 -3 -3 -3 -4 -4 -4 -4 -4 -4 -4 -4 -5 -5 -5 -5 -6 -6 -6 -6 -6 -6 -7 -7 -7 -7 -7 -7 -6 -6 -6 -6 -6 -6 -6 -6 -6 -6
-4 -3 -3 -4 -3 -3 -3 -3 -3 -4 -4 -4 -5 -5 -5 -5 -5 -5 -5 -6 -6 -6 -6 -7 -7 -7 -7 -7 -7 -7 -8 -7 -8 -8 -7 -7 -7 -7 -7 -7 -7 -7 -7 -7
-5 -5 -5 -4 -4 -4 -4 -4 -4 -4 -4 -4 -5 -5 -6 -6 -6 -6 -6 -7 -7 -7 -7 -7 -8 -8 -8 -8 -8 -8 -8 -8 -8 -8 -8 -8 -8 -8 -8 -8 -8 -8 -7 -7
-6 -6 -6 -5 -4 -4 -4 -4 -4 -5 -5 -5 -5 -6 -6 -6 -6 -7 -7 -7 -8 -8 -8 -8 -8 -9 -9 -9 -9 -9 -9 -9 -9 -9 -9 -9 -9 -9 -9 -8 -9 -8 -8 -8
-5 -6 -6 -6 -5 -5 -5 -5 -5 -5 -6 -6 -6 -6 -7 -7 -7 -7 -8 -8 -8 -9 -9 -9 -9 -9 -9 -10 -10 -10 -10 -10 -10 -10 -10 -10 -10 -9 -9 -9 -9 -9 -9 -9
-6 -6 -6 -6 -6 -6 -6 -6 -6 -6 -6 -6 -7 -7 -7 -7 -8 -8 -8 -8 -9 -9 -9 -10 -10 -10 -10 -10 -10 -11 -11 -11 -11 -10 -10 -10 -10 -10 -10 -10 -10 -10 -10 -10
-6 -6 -7 -7 -7 -6 -7 -7 -7 -7 -7 -7 -8 -8 -8 -8 -8 -9 -9 -9 -9 -10 -10 -10 -10 -10 -11 -11 -11 -11 -11 -11 -11 -11 -11 -11 -11 -11 -11 -11 -11 -10 -10 -10
-7 -7 -7 -7 -7 -7 -7 -8 -8 -8 -8 -8 -9 -9 -9 -9 -9 -9 -10 -10 -10 -10 -11 -11 -11 -11 -11 -11 -11 -11 -11 -11 -11 -11 -12 -12 -12 -12 -12 -12 -12 -11 -11 -11
-8 -8 -8 -8 -8 -8 -8 -8 -9 -9 -9 -9 -9 -9 -10 -10 -10 -10 -10 -10 -11 -11 -11 -11 -12 -12 -12 -12 -12 -12 -12 -12 -12 -12 -12 -12 -12 -12 -12 -12 -12 -12 -12 -12
-9 -9 -9 -9 -9 -9 -9 -9 -9 -9 -10 -10 -10 -10 -10 -10 -11 -11 -11 -11 -11 -12 -12 -12 -12 -12 -12 -12 -12 -12 -12 -12 -12 -12 -12 -12 -13 -13 -13 -13 -13 -13 -13 -13
-9 -9 -9 -9 -9 -9 -9 -10 -10 -10 -10 -10 -11 -11 -11 -11 -11 -11 -11 -12 -12 -12 -12 -12 -13 -13 -13 -13 -13 -13 -13 -13 -13 -13 -13 -13 -13 -13 -13 -13 -13 -13 -13 -13
-9 -9 -10 -10 -10 -10 -10 -10 -10 -11 -11 -11 -11 -11 -11 -12 -12 -12 -12 -12 -12 -12 -12 -13 -13 -13 -13 -13 -13 -13 -13 -13 -13 -13 -14 -14 -14 -14 -14 -14 -14 -14 -14 -14
-10 -10 -10 -10 -10 -11 -11 -11 -11 -11 -11 -11 -12 -12 -12 -12 -12 -12 -12 -12 -13 -13 -13 -13 -13 -13 -13 -14 -14 -14 -14 -14 -14 -14 -14 -14 -14 -14 -14 -14 -14 -14 -14 -14
-10 -10 -10 -11 -11 -11 -11 -11 -11 -12 -12 -12 -12 -12 -12 -12 -13 -13 -13 -13 -13 -13 -13 -13 -14 -14 -14 -14 -14 -14 -14 -14 -14 -14 -14 -14 -14 -14 -14 -14 -14 -14 -14 -14
-11 -11 -11 -11 -11 -11 -12 -12 -12 -12 -13 -13 -13 -13 -13 -13 -13 -13 -13 -13 -13 -14 -14 -14 -14 -14 -14 -14 -14 -14 -15 -15 -15 -15 -15 -15 -15 -15 -15 -15 -15 -15 -15 -15
-11 -11 -11 -12 -12 -12 -12 -12 -13 -13 -13 -13 -13 -13 -13 -13 -14 -14 -14 -14 -14 -14 -14 -14 -14 -15 -15 -15 -15 -15 -15 -15 -15 -15 -15 -15 -15 -15 -15 -15 -15 -15 -15 -15
-12 -12 -12 -12 -13 -13 -13 -13 -13 -13 -13 -13 -14 -14 -14 -14 -14 -14 -14 -14 -14 -14 -15 -15 -15 -15 -15 -15 -15 -15 -15 -15 -15 -15 -15 -15 -15 -15 -15 -15 -15 -15 -15 -15
-12 -12 -13 -13 -13 -13 -13 -13 -14 -14 -14 -14 -14 -14 -14 -14 -14 -14 -15 -15 -15 -15 -15 -15 -15 -15 -15 -15 -15 -15 -15 -16 -16 -16 -16 -16 -16 -16 -16 -16 -16 -15 -15 -15
-13 -13 -13 -13 -14 -14 -14 -14 -14 -14 -14 -14 -14 -14 -14 -14 -15 -15 -15 -15 -15 -15 -15 -15 -15 -15 -15 -15 -15 -16 -16 -16 -16 -16 -16 -16 -16 -16 -16 -16 -16 -16 -15 -15
-13 -13 -13 -14 -14 -14 -14 -14 -14 -14 -14 -15 -15 -15 -15 -15 -15 -15 -15 -15 -15 -15 -15 -15 -15 -15 -16 -16 -16 -16 -16 -16 -16 -16 -16 -16 -16 -16 -16 -16 -16 -16 -16 -15
Wind_Speed
9 8 5 8 10 9 11 11 10 10 10 11 8 6 4 3 2 1 1 1 1 1 2 1 2 2 3 3 3 3 2 3 3 3 3 3 3 3 3 3 4 4 4 4
6 6 6 10 11 11 13 11 12 12 13 9 6 3 3 3 3 3 3 3 2 2 2 2 2 3 3 3 3 3 3 3 4 3 3 3 3 3 2 2 3 3 4 5
6 4 4 9 11 11 8 8 9 14 14 5 4 5 6 5 4 4 3 3 3 3 3 3 3 3 3 4 3 3 3 3 3 4 3 4 3 3 3 3 3 3 4 4
3 1 8 9 3 7 9 9 10 8 7 6 6 5 3 3 4 4 4 3 3 3 3 2 2 2 3 2 2 2 3 3 3 3 4 4 3 3 3 3 3 3 4 4
2 4 8 9 4 4 6 8 7 9 8 5 2 1 3 3 3 4 4 3 3 3 2 1 2 2 2 2 2 2 3 3 4 4 4 4 4 4 3 3 3 3 3 3
4 5 7 7 2 1 2 5 3 4 6 3 1 3 6 3 2 2 1 1 1 1 0 1 1 1 1 2 2 3 4 4 4 4 4 4 4 4 3 2 2 2 2 3
6 7 9 6 2 3 4 6 2 3 4 4 5 6 3 1 1 1 1 1 0 0 0 1 1 1 1 2 3 4 4 4 4 4 4 3 3 3 2 2 2 1 2 2
6 6 9 3 4 6 6 1 1 1 2 3 4 2 1 2 2 1 0 1 0 0 1 1 1 1 2 3 4 4 4 4 4 4 3 3 2 2 2 1 1 2 2 2
8 8 3 3 5 3 1 2 2 2 2 2 3 3 3 2 2 1 0 0 0 0 1 2 2 1 2 3 4 4 4 4 4 4 3 3 2 2 2 1 2 2 2 2
5 7 5 4 3 2 2 3 3 3 3 3 3 3 2 2 1 1 0 0 0 0 0 2 2 2 2 3 3 3 3 3 3 3 3 3 2 2 1 2 2 2 2 2
7 6 4 4 4 4 3 2 2 2 2 3 3 3 3 2 2 1 1 0 1 1 1 2 2 2 3 3 2 2 3 3 3 3 3 3 3 2 2 2 3 3 3 3
8 6 5 5 3 3 3 4 4 3 3 2 2 3 2 2 2 1 1 1 0 1 1 2 2 2 3 3 2 2 2 3 2 2 2 2 2 3 5 4 5 5 5 4
6 4 4 4 3 2 3 3 3 3 3 2 1 2 2 1 1 1 1 1 1 2 2 1 2 3 3 3 2 2 2 3 2 2 2 2 2 2 3 4 6 6 6 6
4 3 4 3 3 2 2 2 1 1 1 1 1 1 1 1 1 1 2 2 1 1 1 1 2 3 3 3 2 2 2 3 2 2 2 2 2 2 2 2 3 4 5 7
4 4 4 2 1 1 1 0 0 1 0 0 1 1 2 2 2 2 1 0 0 0 1 1 2 3 3 3 2 2 2 2 2 2 1 2 2 2 2 2 2 3 4 5
2 1 1 2 3 2 1 1 2 2 1 1 1 1 1 1 1 1 1 1 1 2 2 2 3 4 3 2 2 2 2 4 2 1 1 1 1 2 2 2 2 3 3 4
2 3 3 3 3 3 3 3 3 2 2 2 2 1 1 1 0 1 1 1 2 2 3 3 3 3 3 2 2 2 2 3 4 2 1 1 1 2 2 2 2 2 3 4
4 4 4 4 3 3 2 2 2 2 2 2 1 1 1 2 2 2 2 1 2 2 3 3 3 3 3 2 2 2 2 2 2 2 2 2 2 2 2 2 2 3 3 4
1 2 2 2 3 2 2 3 3 2 2 2 2 2 2 2 3 2 1 1 2 3 4 3 4 3 2 3 2 1 1 2 2 2 2 3 3 2 2 2 2 3 3 3
1 1 1 1 1 1 2 2 2 2 2 2 2 2 2 2 2 2 2 3 4 4 3 4 3 3 3 3 3 1 2 2 2 2 2 2 2 2 2 3 3 3 3 3
1 0 0 1 1 1 1 1 1 2 2 2 3 3 3 3 2 2 2 3 3 3 3 4 2 2 3 3 3 2 2 2 2 2 2 2 2 3 3 3 3 3 3 3
1 1 1 1 1 1 1 1 2 2 2 2 2 2 2 3 2 2 3 4 4 4 3 2 3 4 5 4 1 1 2 2 2 2 2 3 3 3 3 3 3 4 4 4
2 2 2 2 1 1 1 1 1 2 2 3 3 3 4 3 3 3 4 3 3 5 3 3 5 6 5 2 1 1 2 2 2 3 3 3 3 3 3 4 4 4 4 4
1 1 1 1 1 1 1 2 1 2 2 3 3 4 3 3 3 3 4 5 5 5 3 5 7 6 4 1 1 2 2 3 3 3 3 3 3 3 4 4 4 4 5 5
1 1 1 1 1 2 2 2 1 2 2 2 3 3 3 3 3 3 3 3 5 5 3 5 7 6 3 1 2 2 3 3 4 4 3 4 4 4 4 4 5 5 5 5
1 1 2 2 2 2 1 1 1 2 2 2 3 2 2 2 2 3 2 3 4 5 3 3 3 4 2 2 3 3 3 4 5 4 4 4 5 5 5 5 6 5 6 6
1 1 1 1 1 2 2 2 2 3 3 3 3 3 2 2 2 2 3 3 3 3 3 3 3 3 3 3 3 3 3 4 4 4 4 4 5 5 5 6 6 6 6 6
Wind_Direction
255 259 240 238 242 221 215 218 225 243 243 253 257 252 254 249 236 223 235 253 271 289 300 311 317 317 322 324 327 326 321 311 297 293 292 286 278 267 243 236 234 221 214 219
270 259 249 260 253 233 231 233 238 253 262 260 257 246 251 239 224 232 251 254 267 283 288 288 290 301 309 310 317 321 314 310 314 311 307 303 291 282 258 238 238 225 219 217
265 290 308 265 241 222 221 219 216 237 249 255 255 244 235 228 220 231 247 259 258 255 258 264 270 281 284 297 314 320 319 318 318 317 311 307 301 293 269 248 243 235 232 224
254 328 248 251 226 210 222 240 228 232 250 247 243 245 225 211 211 233 250 259 265 264 267 270 282 294 296 307 308 314 318 315 318 318 313 310 305 290 280 261 248 246 244 234
203 242 271 285 256 198 209 255 236 232 253 267 290 329 274 236 212 220 232 243 246 249 252 264 284 298 314 316 316 320 317 313 313 313 306 304 300 292 285 273 258 250 250 239
197 219 242 252 240 211 134 268 252 216 239 236 133 252 259 227 224 239 270 258 255 275 325 271 299 306 308 304 310 309 308 306 308 307 299 294 290 291 289 282 269 269 273 257
215 232 259 259 234 126 181 253 250 207 223 206 209 232 256 191 222 230 280 280 251 127 245 280 306 331 306 303 303 307 310 312 315 311 300 291 296 293 292 292 294 273 278 283
192 217 250 218 142 183 222 254 212 225 220 216 234 259 245 222 217 220 313 335 59 62 336 328 328 330 306 306 316 322 321 322 322 319 307 303 295 294 297 287 283 265 264 273
200 220 247 173 191 219 199 214 229 229 240 219 230 243 243 240 230 231 214 239 75 144 322 328 329 322 290 307 323 328 330 328 325 328 327 315 289 281 291 283 272 271 262 269
242 255 253 239 243 272 234 226 238 234 231 205 221 232 234 227 222 240 246 206 57 155 291 320 332 336 311 308 322 325 326 327 329 335 338 339 332 323 302 284 273 274 265 262
248 266 292 270 245 248 246 237 249 266 240 215 208 228 220 216 216 225 244 241 187 224 261 291 320 329 326 323 331 334 327 327 329 334 332 336 341 333 318 303 292 285 274 265
240 233 224 248 247 233 224 235 236 234 250 246 205 210 208 215 206 205 217 209 241 265 264 285 305 316 320 324 328 328 328 328 326 331 334 336 338 340 343 335 333 333 323 310
243 252 240 254 271 256 236 250 250 238 233 233 213 183 179 201 194 193 213 219 228 250 265 279 301 310 315 319 322 319 307 309 312 324 329 329 329 333 335 342 344 346 347 341
245 249 257 254 252 262 251 264 272 305 287 185 161 143 157 169 183 207 229 240 236 237 256 267 294 302 307 313 318 321 312 305 315 315 319 324 326 326 324 325 329 330 338 344
264 238 232 250 273 305 301 104 49 299 301 27 141 173 177 188 213 239 252 262 301 267 275 279 294 301 309 309 314 314 310 307 313 317 322 325 328 327 323 323 317 319 327 332
279 260 208 221 248 262 260 229 225 249 247 235 227 224 214 203 222 254 262 205 206 253 271 276 283 294 303 306 316 319 308 304 313 315 325 330 325 317 312 315 320 325 327 326
214 242 233 242 251 256 244 236 231 237 236 238 240 229 184 162 221 270 284 276 257 260 264 263 276 293 301 301 296 299 302 305 312 321 312 299 298 295 296 300 305 310 311 315
229 231 228 227 235 240 250 249 241 238 237 237 216 187 194 203 224 247 266 291 308 301 286 275 277 288 292 296 289 288 293 299 305 303 302 297 298 295 293 294 298 302 310 316
249 234 233 232 231 217 230 243 242 236 231 202 192 211 228 231 230 237 241 247 259 277 282 279 291 304 293 287 300 274 276 288 297 299 298 293 310 308 295 290 292 297 302 308
335 317 237 231 227 215 235 246 234 230 224 196 195 212 240 247 233 227 230 246 245 247 261 276 284 280 276 274 293 268 260 265 276 289 295 293 290 291 290 289 290 291 293 295
298 285 229 231 270 272 248 230 210 230 237 206 205 222 239 253 237 216 224 266 274 255 258 279 287 277 274 276 282 262 256 261 268 272 276 280 282 285 287 290 292 293 293 294
251 235 239 245 253 287 284 245 217 221 228 226 229 228 231 247 246 242 241 245 262 278 280 265 273 275 280 283 271 262 266 270 271 274 275 276 277 280 284 286 288 290 291 289
251 241 236 231 231 259 293 273 231 222 227 231 233 230 232 239 234 233 264 260 250 269 277 262 279 286 289 298 278 264 270 271 269 269 270 271 272 272 275 279 281 283 284 285
241 235 226 211 162 179 276 283 268 253 244 249 244 236 231 243 258 248 248 271 279 282 275 279 289 293 299 328 276 272 268 267 267 264 264 266 267 267 270 273 277 280 282 283
228 218 194 183 210 241 252 269 285 281 270 271 269 258 244 233 239 255 256 261 276 289 289 286 292 298 312 296 276 272 269 262 261 260 258 264 267 268 271 272 273 275 277 278
226 230 234 231 230 237 243 245 261 273 273 282 286 278 269 253 241 250 257 260 266 284 288 278 284 290 286 275 271 271 271 277 283 277 264 263 264 265 268 270 270 272 273 273
245 247 250 272 261 236 230 234 248 262 262 261 275 279 273 267 259 258 261 265 268 273 273 273 277 276 274 270 269 269 269 270 270 268 267 264 263 264 267 267 271 272 272 273
Height
1488 1485 1485 1485 1484 1486 1487 1484 1484 1476 1474 1468 1468 1468 1467 1467 1467 1467 1466 1466 1465 1464 1463 1463 1463 1462 1461 1460 1460 1460 1459 1459 1459 1459 1459 1459 1459 1459 1460 1461 1461 1462 1462 1463
1489 1483 1484 1482 1479 1479 1479 1479 1477 1473 1469 1464 1464 1465 1465 1465 1464 1464 1463 1463 1462 1462 1461 1460 1460 1459 1458 1457 1457 1456 1456 1455 1455 1455 1455 1454 1454 1454 1455 1455 1456 1456 1457 1457
1488 1485 1482 1479 1471 1471 1472 1471 1471 1468 1462 1461 1462 1462 1461 1461 1461 1461 1461 1460 1460 1459 1458 1458 1457 1456 1455 1454 1454 1453 1452 1452 1451 1451 1450 1450 1450 1450 1450 1450 1450 1451 1452 1452
1491 1489 1485 1467 1464 1463 1464 1463 1463 1460 1458 1458 1458 1458 1458 1458 1458 1457 1458 1457 1457 1456 1455 1455 1454 1454 1453 1452 1451 1449 1449 1448 1447 1447 1446 1446 1445 1445 1445 1445 1445 1446 1446 1447
1489 1489 1479 1467 1462 1462 1463 1460 1457 1458 1456 1456 1456 1456 1455 1455 1455 1455 1454 1454 1453 1453 1452 1452 1451 1450 1449 1448 1447 1446 1445 1444 1443 1443 1442 1441 1441 1441 1440 1441 1441 1441 1441 1441
1486 1485 1478 1461 1459 1458 1461 1460 1455 1454 1454 1454 1455 1457 1453 1452 1452 1452 1452 1451 1450 1450 1449 1448 1448 1447 1446 1445 1444 1442 1441 1440 1440 1439 1438 1437 1437 1436 1436 1436 1436 1436 1436 1436
1482 1480 1470 1459 1457 1458 1463 1456 1453 1451 1451 1452 1452 1451 1450 1449 1449 1448 1448 1448 1447 1446 1446 1445 1444 1444 1443 1442 1440 1439 1438 1437 1436 1435 1434 1433 1433 1432 1432 1432 1431 1431 1432 1432
1478 1477 1467 1455 1456 1458 1454 1451 1450 1449 1449 1449 1449 1448 1447 1446 1446 1445 1445 1444 1444 1443 1443 1442 1441 1441 1439 1438 1438 1436 1435 1433 1432 1431 1430 1429 1429 1428 1428 1428 1427 1427 1427 1427
1465 1460 1453 1451 1451 1450 1450 1449 1448 1448 1447 1447 1446 1445 1445 1444 1443 1442 1442 1441 1441 1440 1440 1439 1439 1438 1436 1436 1435 1433 1432 1430 1429 1428 1427 1426 1425 1425 1425 1424 1424 1423 1423 1423
1460 1453 1450 1449 1449 1448 1448 1447 1447 1446 1445 1444 1444 1443 1442 1441 1441 1440 1439 1439 1438 1438 1437 1436 1436 1435 1434 1433 1432 1431 1429 1428 1426 1425 1424 1423 1422 1422 1421 1421 1421 1420 1420 1419
1454 1450 1448 1446 1445 1446 1445 1445 1444 1444 1443 1442 1441 1440 1439 1438 1438 1438 1437 1437 1436 1435 1435 1434 1433 1432 1431 1430 1429 1428 1426 1425 1424 1422 1421 1420 1420 1419 1418 1418 1418 1418 1416 1416
1447 1445 1445 1443 1443 1443 1442 1441 1441 1441 1440 1439 1438 1437 1437 1436 1436 1435 1435 1434 1433 1433 1432 1432 1431 1430 1429 1428 1427 1425 1424 1423 1421 1420 1419 1418 1417 1416 1415 1415 1414 1414 1413 1413
1442 1441 1441 1439 1440 1440 1439 1438 1438 1437 1436 1436 1435 1435 1434 1433 1433 1433 1432 1432 1431 1430 1430 1429 1428 1428 1427 1426 1424 1423 1422 1421 1420 1418 1417 1416 1415 1414 1412 1412 1411 1410 1409 1409
1439 1439 1437 1436 1436 1436 1436 1435 1435 1434 1433 1433 1432 1432 1432 1431 1431 1430 1430 1429 1428 1428 1427 1427 1426 1425 1425 1424 1423 1421 1420 1419 1418 1417 1416 1414 1413 1412 1411 1409 1408 1407 1406 1405
1435 1435 1434 1433 1433 1433 1432 1432 1431 1431 1430 1430 1430 1429 1429 1428 1428 1428 1427 1427 1426 1426 1425 1424 1424 1423 1423 1422 1421 1420 1418 1417 1416 1415 1414 1413 1412 1411 1409 1408 1407 1405 1403 1402
1431 1431 1430 1430 1429 1429 1429 1428 1428 1427 1427 1427 1427 1427 1426 1426 1426 1425 1425 1424 1424 1423 1423 1422 1422 1421 1420 1419 1418 1417 1416 1416 1415 1413 1412 1411 1410 1409 1407 1406 1404 1403 1401 1400
1428 1427 1427 1426 1426 1426 1426 1425 1425 1425 1425 1424 1424 1424 1424 1423 1423 1423 1422 1422 1422 1421 1421 1420 1420 1419 1418 1417 1416 1415 1414 1413 1412 1411 1410 1409 1408 1407 1405 1404 1402 1401 1400 1399
1425 1424 1424 1424 1423 1423 1423 1423 1423 1422 1422 1422 1422 1421 1421 1421 1420 1420 1420 1420 1419 1419 1418 1418 1417 1416 1416 1415 1414 1413 1412 1411 1410 1409 1408 1407 1406 1405 1403 1402 1400 1399 1397 1396
1421 1421 1421 1421 1421 1421 1420 1420 1420 1420 1420 1419 1419 1419 1419 1418 1418 1418 1418 1417 1416 1416 1416 1415 1415 1414 1413 1412 1412 1411 1410 1408 1407 1406 1405 1404 1403 1402 1401 1400 1398 1397 1395 1394
1419 1419 1418 1418 1418 1418 1418 1417 1417 1417 1417 1417 1417 1416 1416 1416 1416 1416 1415 1415 1414 1414 1413 1413 1412 1411 1411 1410 1409 1408 1407 1406 1405 1404 1403 1402 1401 1399 1398 1397 1396 1394 1393 1391
1417 1417 1416 1416 1416 1416 1415 1415 1415 1414 1414 1414 1414 1414 1414 1414 1413 1413 1412 1412 1412 1412 1411 1410 1409 1409 1408 1407 1407 1405 1404 1403 1402 1401 1400 1399 1398 1396 1395 1394 1392 1391 1389 1388
1415 1415 1414 1414 1413 1413 1413 1412 1412 1412 1412 1412 1411 1411 1411 1411 1411 1410 1410 1410 1409 1409 1408 1407 1407 1406 1405 1405 1404 1402 1401 1400 1399 1398 1397 1396 1395 1393 1392 1391 1389 1387 1386 1384
1413 1413 1412 1412 1411 1411 1410 1410 1410 1410 1409 1409 1409 1409 1408 1408 1407 1407 1407 1407 1406 1406 1405 1404 1404 1403 1403 1401 1400 1399 1398 1397 1396 1395 1393 1392 1391 1390 1389 1387 1386 1384 1382 1381
1411 1411 1410 1410 1409 1409 1408 1408 1408 1408 1407 1407 1407 1406 1406 1405 1405 1404 1404 1403 1403 1403 1402 1401 1401 1400 1399 1398 1397 1396 1395 1393 1392 1391 1390 1389 1387 1386 1385 1384 1382 1380 1379 1377
1410 1409 1409 1408 1407 1407 1407 1406 1406 1405 1405 1404 1404 1404 1403 1402 1402 1401 1401 1400 1400 1399 1398 1398 1397 1396 1395 1394 1393 1392 1391 1390 1389 1388 1386 1385 1384 1382 1381 1380 1378 1376 1375 1373
1408 1407 1407 1406 1406 1405 1405 1404 1404 1403 1402 1402 1401 1401 1400 1400 1399 1398 1398 1397 1396 1396 1395 1394 1393 1392 1392 1391 1390 1389 1388 1386 1385 1384 1383 1381 1380 1379 1377 1375 1374 1372 1371 1369
1406 1405 1405 1404 1404 1403 1403 1402 1401 1401 1400 1399 1398 1398 1397 1396 1396 1395 1394 1394 1393 1392 1391 1391 1390 1389 1388 1387 1386 1385 1384 1383 1381 1380 1379 1378 1376 1375 1373 1372 1370 1368 1367 1365